This is the latest recevied weather packets stored in our database for station/object K3JSE-4. If no packets are shown the sender has not sent any weather packets the latest 10 day(s).
| Time | Temp. | Humidity | Pressure | Rain* | Wind** | Luminosity | Snow |
|---|---|---|---|---|---|---|---|
| 1777664144 | 17.78° C | 38% | 1012.3 hPa | 0 mm | - | - | - |
| 1777663844 | 17.78° C | 40% | 1012.3 hPa | 0 mm | - | - | - |
| 1777663544 | 17.78° C | 40% | 1012.3 hPa | 0 mm | - | - | - |
| 1777663244 | 17.22° C | 42% | 1012.4 hPa | 0 mm | - | - | - |
| 1777662944 | 17.22° C | 42% | 1012.4 hPa | 0 mm | - | - | - |
| 1777662644 | 17.22° C | 43% | 1012.5 hPa | 0 mm | - | - | - |
| 1777662344 | 17.22° C | 43% | 1012.6 hPa | 0 mm | - | - | - |
| 1777662044 | 16.67° C | 42% | 1012.7 hPa | 0 mm | - | - | - |
| 1777661744 | 17.22° C | 42% | 1012.8 hPa | 0 mm | - | - | - |
| 1777661444 | 16.67° C | 44% | 1012.8 hPa | 0 mm | - | - | - |
| 1777661144 | 16.11° C | 40% | 1012.9 hPa | 0 mm | - | - | - |
| 1777660844 | 16.67° C | 40% | 1013 hPa | 0 mm | - | - | - |
| 1777660544 | 16.11° C | 40% | 1013 hPa | 0 mm | - | - | - |
| 1777660244 | 16.11° C | 39% | 1013.1 hPa | 0 mm | - | - | - |
| 1777659944 | 16.11° C | 43% | 1013.1 hPa | 0 mm | - | - | - |
| 1777659644 | 16.11° C | 40% | 1013.2 hPa | 0 mm | - | - | - |
| 1777659344 | 16.11° C | 39% | 1013.1 hPa | 0 mm | - | - | - |
| 1777659044 | 16.11° C | 40% | 1013.1 hPa | 0 mm | - | - | - |
| 1777658744 | 15.56° C | 40% | 1013.1 hPa | 0 mm | - | - | - |
| 1777658444 | 16.11° C | 43% | 1013.2 hPa | 0 mm | - | - | - |
| 1777658144 | 16.67° C | 45% | 1013.1 hPa | 0 mm | - | - | - |
| 1777657844 | 16.11° C | 40% | 1013.1 hPa | 0 mm | - | - | - |
| 1777657544 | 16.11° C | 48% | 1013 hPa | 0 mm | - | - | - |
| 1777657244 | 15.56° C | 41% | 1013.1 hPa | 0 mm | - | - | - |
| 1777656943 | 15.56° C | 46% | 1013.2 hPa | 0 mm | - | - | - |
* Rain latest hour (hover to see other rain measurements)
** Current wind speed in m/s (hover to see current wind gust speed)